Location: LewisvilleTX
(33.0462°N, 96.9942°W)
Time: 06:47:26
(UTC+00:00)

N. Korean satellite - Pass Details

Date: 03 December 2021
Orbit: 447 x 491 km, 97.3° (Epoch: 22 January)

Event Time Altitude Azimuth Distance (km) Brightness Sun altitude
Rises 11:36:28 0° 11° (N) 2,454 10.1 -20.2°
Reaches altitude 10° 11:38:30 10° 12° (NNE) 1,576 9.1 -19.8°
Maximum altitude 11:41:52 87° 100° (E) 452 6.3 -19.1°
Drops below altitude 10° 11:45:13 10° 191° (SSW) 1,566 9.2 -18.4°
Sets 11:47:14 0° 192° (SSW) 2,435 10.2 -18.0°
